Randolph AFB, TX

9:58 AM CDT on March 25, 2017 (GMT -0500)
Randolph Air Force Base

Weather History for KRND - December, 2011

Change the Weather History Date:

Sunday, December 25, 2011

  Actual Average Record
Temperature  
Mean Temperature 46 °F -  
Max Temperature 49 °F 60 °F 78 °F (2016)
Min Temperature 42 °F 39 °F 26 °F (1998)
Degree Days  
Heating Degree Days 20    
Moisture  
Dew Point 40 °F    
Average Humidity 83    
Maximum Humidity 100    
Minimum Humidity 71    
Precipitation  
Precipitation 0.00 in - - ()
Sea Level Pressure  
Sea Level Pressure 30.36 in    
Wind  
Wind Speed 11 mph (NNW)    
Max Wind Speed 15 mph    
Max Gust Speed 21 mph    
Visibility 10 miles    
Events      
Averages and records for this station are not official NWS values.
T = Trace of Precipitation, MM = Missing Value Source: NWS Daily Summary

Daily Weather History Graph

Daily Weather History Graph

Search for Another Location

Airport or City:

Trip Planner

Search our weather history database for the weather conditions in past years. The results will help you decide how hot, cold, wet, or windy it might be!

Date:

Astronomy

Dec. 25, 2011 Rise Set
Actual Time 7:25 AM CST 5:40 PM CST
Civil Twilight 6:59 AM CST 6:07 PM CST
Nautical Twilight 6:29 AM CST 6:36 PM CST
Astronomical Twilight 6:00 AM CST 7:05 PM CST
Moon 8:07 AM CST 6:58 PM CST
Length of Visible Light 11h 07m
Length of Day
10h 15m
New Moon, 1% of the Moon is Illuminated
Dec 25
New Moon
Jan 1
First Quarter
Jan 9
Full
Jan 16
Last Quarter
Jan 23
New

Hourly Weather History & Observations

Time (CST) Temp. Windchill Dew Point Humidity Pressure Visibility Wind Dir Wind Speed Gust Speed Precip Events Conditions
12:02 AM 42.8 °F 36.6 °F 41.0 °F 93% 30.36 in 10.0 mi NNW 11.5 mph - N/A   Overcast
12:12 AM 42.8 °F 36.6 °F 41.0 °F 93% 30.35 in 10.0 mi North 11.5 mph - N/A   Overcast
12:26 AM 42.8 °F 36.6 °F 42.8 °F 100% 30.35 in 10.0 mi North 11.5 mph - N/A   Overcast
12:27 AM 42.8 °F 36.6 °F 42.8 °F 100% 30.35 in 10.0 mi North 11.5 mph - N/A   Overcast
12:35 AM 42.8 °F 36.6 °F 41.0 °F 93% 30.36 in 10.0 mi NNW 11.5 mph - N/A   Overcast
12:47 AM 42.8 °F 36.2 °F 41.0 °F 93% 30.36 in 10.0 mi North 12.7 mph - N/A   Overcast
12:53 AM 42.8 °F 36.2 °F 41.0 °F 93% 30.35 in 10.0 mi North 12.7 mph - N/A   Overcast
12:55 AM 43.5 °F 37.1 °F 41.4 °F 92% 30.35 in 10.0 mi North 12.7 mph - 0.00 in   Light Drizzle
1:06 AM 42.8 °F 35.8 °F 41.0 °F 93% 30.36 in 10.0 mi NNW 13.8 mph - N/A   Overcast
1:09 AM 42.8 °F 36.2 °F 41.0 °F 93% 30.35 in 10.0 mi NNW 12.7 mph - N/A   Light Drizzle
1:26 AM 42.8 °F 37.0 °F 41.0 °F 93% 30.35 in 10.0 mi NNW 10.4 mph - N/A   Overcast
1:37 AM 42.8 °F 37.0 °F 41.0 °F 93% 30.35 in 10.0 mi NNW 10.4 mph - N/A   Overcast
1:55 AM 43.5 °F 37.9 °F 41.7 °F 93% 30.35 in 10.0 mi NNW 10.4 mph - 0.00 in   Overcast
2:08 AM 42.8 °F 37.5 °F 41.0 °F 93% 30.35 in 10.0 mi NNW 9.2 mph - N/A   Overcast
2:23 AM 44.6 °F 39.2 °F 41.0 °F 87% 30.35 in 10.0 mi NNW 10.4 mph - N/A   Overcast
2:25 AM 44.6 °F 38.8 °F 41.0 °F 87% 30.35 in 10.0 mi NNW 11.5 mph - N/A   Overcast
2:27 AM 44.6 °F 39.2 °F 41.0 °F 87% 30.35 in 10.0 mi NNW 10.4 mph - N/A   Overcast
2:37 AM 44.6 °F 39.2 °F 42.8 °F 93% 30.35 in 10.0 mi NNW 10.4 mph - N/A   Overcast
2:38 AM 44.6 °F 39.2 °F 42.8 °F 93% 30.35 in 10.0 mi NNW 10.4 mph - N/A   Overcast
2:41 AM 44.6 °F 39.2 °F 42.8 °F 93% 30.35 in 10.0 mi NNW 10.4 mph - N/A   Overcast
2:55 AM 43.9 °F 38.3 °F 42.1 °F 93% 30.35 in 10.0 mi NNW 10.4 mph - N/A   Overcast
3:02 AM 44.6 °F 39.7 °F 42.8 °F 93% 30.35 in 10.0 mi NNW 9.2 mph - N/A   Overcast
3:04 AM 44.6 °F 38.8 °F 42.8 °F 93% 30.35 in 10.0 mi NNW 11.5 mph - N/A   Overcast
3:15 AM 44.6 °F 39.2 °F 41.0 °F 87% 30.35 in 10.0 mi NNW 10.4 mph - N/A   Overcast
3:22 AM 44.6 °F 39.2 °F 41.0 °F 87% 30.35 in 10.0 mi NNW 10.4 mph - N/A   Overcast
3:40 AM 44.6 °F 39.2 °F 42.8 °F 93% 30.35 in 10.0 mi NNW 10.4 mph - N/A   Overcast
3:55 AM 44.1 °F 38.1 °F 41.7 °F 91% 30.34 in 10.0 mi NNW 11.5 mph - N/A   Overcast
4:01 AM 44.6 °F 38.4 °F 41.0 °F 87% 30.35 in 10.0 mi NNW 12.7 mph 18.4 mph N/A   Overcast
4:03 AM 44.6 °F 38.8 °F 41.0 °F 87% 30.35 in 10.0 mi NNW 11.5 mph - N/A   Overcast
4:09 AM 44.6 °F 38.1 °F 41.0 °F 87% 30.34 in 10.0 mi NNW 13.8 mph - N/A   Overcast
4:55 AM 44.2 °F 38.8 °F 41.2 °F 89% 30.33 in 10.0 mi NNW 10.4 mph - N/A   Overcast
5:21 AM 44.6 °F 39.2 °F 41.0 °F 87% 30.34 in 10.0 mi NNW 10.4 mph - N/A   Overcast
5:42 AM 44.6 °F 38.4 °F 41.0 °F 87% 30.34 in 10.0 mi NNW 12.7 mph - N/A   Overcast
5:55 AM 43.9 °F 37.5 °F 40.6 °F 88% 30.34 in 10.0 mi NNW 12.7 mph - N/A   Overcast
6:32 AM 44.6 °F 38.1 °F 39.2 °F 81% 30.36 in 10.0 mi NNW 13.8 mph - N/A   Overcast
6:55 AM 43.7 °F 36.9 °F 39.0 °F 84% 30.36 in 10.0 mi North 13.8 mph - N/A   Overcast
7:55 AM 43.7 °F 38.1 °F 38.8 °F 83% 30.37 in 10.0 mi North 10.4 mph - N/A   Overcast
8:55 AM 44.4 °F 39.0 °F 39.4 °F 82% 30.39 in 10.0 mi North 10.4 mph - N/A   Overcast
9:48 AM 44.6 °F 39.7 °F 39.2 °F 81% 30.41 in 10.0 mi North 9.2 mph - N/A   Overcast
9:55 AM 45.7 °F 41.0 °F 39.7 °F 80% 30.41 in 10.0 mi North 9.2 mph - N/A   Overcast
10:04 AM 46.4 °F 41.1 °F 39.2 °F 76% 30.41 in 10.0 mi North 11.5 mph - N/A   Overcast
10:16 AM 46.4 °F 41.5 °F 39.2 °F 76% 30.41 in 10.0 mi North 10.4 mph - N/A   Overcast
10:40 AM 46.4 °F 42.4 °F 41.0 °F 81% 30.42 in 10.0 mi North 8.1 mph - N/A   Overcast
10:44 AM 46.4 °F 42.4 °F 41.0 °F 81% 30.42 in 10.0 mi North 8.1 mph - N/A   Overcast
10:55 AM 47.1 °F - 40.3 °F 77% 30.42 in 10.0 mi North 9.2 mph - N/A   Overcast
11:46 AM 46.4 °F 42.9 °F 41.0 °F 81% 30.41 in 10.0 mi North 6.9 mph - N/A   Overcast
11:55 AM 47.5 °F - 40.1 °F 76% 30.41 in 10.0 mi North 11.5 mph - N/A   Overcast
11:57 AM 48.2 °F - 39.2 °F 71% 30.41 in 10.0 mi North 11.5 mph - N/A   Overcast
12:01 PM 46.4 °F 41.9 °F 39.2 °F 76% 30.40 in 10.0 mi North 9.2 mph - N/A   Overcast
12:03 PM 46.4 °F 41.9 °F 39.2 °F 76% 30.40 in 10.0 mi North 9.2 mph - N/A   Overcast
12:26 PM 48.2 °F - 39.2 °F 71% 30.39 in 10.0 mi North 11.5 mph - N/A   Overcast
12:28 PM 48.2 °F - 39.2 °F 71% 30.39 in 10.0 mi North 11.5 mph - N/A   Overcast
12:47 PM 48.2 °F - 39.2 °F 71% 30.38 in 10.0 mi North 10.4 mph - N/A   Overcast
12:48 PM 48.2 °F - 39.2 °F 71% 30.38 in 10.0 mi North 11.5 mph - N/A   Overcast
12:55 PM 47.7 °F - 39.7 °F 74% 30.38 in 10.0 mi North 11.5 mph - N/A   Overcast
1:12 PM 48.2 °F - 41.0 °F 76% 30.37 in 10.0 mi NNW 11.5 mph - N/A   Overcast
1:55 PM 48.7 °F - 39.9 °F 72% 30.35 in 10.0 mi NNW 10.4 mph - N/A   Overcast
2:55 PM 49.5 °F - 40.5 °F 71% 30.34 in 10.0 mi North 11.5 mph - N/A   Overcast
3:55 PM 47.5 °F - 39.0 °F 72% 30.34 in 10.0 mi NNW 11.5 mph - N/A   Overcast
4:35 PM 48.2 °F - 39.2 °F 71% 30.34 in 10.0 mi NNW 12.7 mph - N/A   Overcast
4:55 PM 47.1 °F - 38.5 °F 72% 30.34 in 10.0 mi NNW 15.0 mph 20.7 mph N/A   Overcast
5:20 PM 46.4 °F 41.1 °F 37.4 °F 71% 30.34 in 10.0 mi NNW 11.5 mph - N/A   Scattered Clouds
5:55 PM 45.3 °F 40.6 °F 38.3 °F 76% 30.35 in 10.0 mi NNW 9.2 mph - N/A   Partly Cloudy
6:55 PM 44.8 °F 40.4 °F 38.5 °F 79% 30.35 in 10.0 mi NW 8.1 mph - N/A   Scattered Clouds
7:01 PM 44.6 °F 39.7 °F 39.2 °F 81% 30.35 in 10.0 mi NW 9.2 mph - N/A   Mostly Cloudy
7:13 PM 44.6 °F 39.7 °F 37.4 °F 76% 30.35 in 10.0 mi NNW 9.2 mph - N/A   Mostly Cloudy
7:34 PM 44.6 °F 40.7 °F 37.4 °F 76% 30.35 in 10.0 mi NW 6.9 mph - N/A   Overcast
7:55 PM 45.0 °F 41.2 °F 38.3 °F 77% 30.35 in 10.0 mi NNW 6.9 mph - N/A   Overcast
8:38 PM 44.6 °F 40.7 °F 37.4 °F 76% 30.37 in 10.0 mi NW 6.9 mph - N/A   Overcast
8:55 PM 44.8 °F 42.4 °F 37.9 °F 77% 30.37 in 10.0 mi NNW 4.6 mph - N/A   Overcast
9:22 PM 44.6 °F 41.4 °F 37.4 °F 76% 30.37 in 10.0 mi NNW 5.8 mph - N/A   Overcast
9:40 PM 44.6 °F 41.4 °F 37.4 °F 76% 30.35 in 10.0 mi NNW 5.8 mph - N/A   Overcast
9:55 PM 44.6 °F 40.7 °F 37.9 °F 77% 30.37 in 10.0 mi NW 6.9 mph - N/A   Mostly Cloudy
10:17 PM 44.6 °F 40.2 °F 37.4 °F 76% 30.37 in 10.0 mi NW 8.1 mph - N/A   Overcast
10:42 PM 44.6 °F 39.7 °F 37.4 °F 76% 30.36 in 10.0 mi NNW 9.2 mph - N/A   Mostly Cloudy
10:55 PM 44.4 °F 41.2 °F 37.4 °F 76% 30.35 in 10.0 mi North 5.8 mph - N/A   Mostly Cloudy
10:57 PM 44.6 °F 40.7 °F 37.4 °F 76% 30.35 in 10.0 mi NNW 6.9 mph - N/A   Mostly Cloudy
11:55 PM 43.5 °F 39.4 °F 37.2 °F 78% 30.32 in 10.0 mi NNW 6.9 mph - N/A   Mostly Cloudy